| time (UTC) | temp F | wind direction | speed knots | gust knots | rain 1hr in | rain 24hr in | rain mn in | humidity % | barometer mb |
| 20260505101714 | 54 | 360 | 0.0 | 3.5 | 0.00 | 0.00 | 0.00 | 53 | 1010.2 |
| 20260505100123 | 54 | 360 | 0.0 | 2.6 | 0.00 | 0.00 | 0.00 | 53 | 1010.6 |
| 20260505094535 | 54 | 102 | 0.9 | 2.6 | 0.00 | 0.00 | 0.00 | 55 | 1010.7 |
| 20260505092945 | 54 | 360 | 2.6 | 2.6 | 0.00 | 0.00 | 0.00 | 56 | 1010.5 |
| 20260505091358 | 54 | 334 | 2.6 | 2.6 | 0.00 | 0.00 | 0.00 | 57 | 1009.8 |
| 20260505085807 | 54 | 19 | 3.5 | 4.3 | 0.00 | 0.00 | 0.00 | 57 | 1009.2 |
| 20260505084218 | 54 | 344 | 2.6 | 4.3 | 0.00 | 0.00 | 0.00 | 58 | 1009.0 |
| 20260505082632 | 54 | 345 | 1.7 | 4.3 | 0.00 | 0.00 | 0.00 | 57 | 1008.8 |
| 20260505081040 | 54 | 338 | 1.7 | 2.6 | 0.00 | 0.00 | 0.00 | 55 | 1009.1 |
| 20260505075451 | 54 | 342 | 1.7 | 2.6 | 0.00 | 0.00 | 0.00 | 57 | 1009.9 |
| 20260505073902 | 55 | 5 | 1.7 | 2.6 | 0.00 | 0.00 | 0.00 | 57 | 1009.2 |
| 20260505072315 | 56 | 344 | 2.6 | 4.3 | 0.00 | 0.00 | 0.00 | 57 | 1010.2 |
| 20260505070724 | 58 | 65 | 2.6 | 4.3 | 0.00 | 0.00 | 0.00 | 49 | 1010.1 |
| 20260505065137 | 59 | 355 | 2.6 | 7.8 | 0.00 | 0.00 | 0.00 | 41 | 1009.5 |
| 20260505063548 | 60 | 24 | 1.7 | 1.7 | 0.00 | 0.00 | 0.00 | 41 | 1008.0 |
| 20260505061957 | 60 | 328 | 2.6 | 4.3 | 0.00 | 0.00 | 0.00 | 42 | 1007.7 |
| 20260505060408 | 62 | 360 | 5.2 | 5.2 | 0.00 | 0.00 | 0.00 | 40 | 1007.5 |
| 20260505054820 | 63 | 355 | 8.7 | 10.4 | 0.00 | 0.00 | 0.00 | 40 | 1007.0 |
| 20260505053231 | 65 | 360 | 8.7 | 8.7 | 0.00 | 0.00 | 0.00 | 39 | 1007.0 |
| 20260505051641 | 67 | 83 | 3.5 | 7.8 | 0.00 | 0.00 | 0.00 | 38 | 1006.5 |
| 20260505041326 | 71 | 46 | 1.7 | 2.6 | 0.00 | 0.00 | 0.00 | 37 | 1005.3 |
| 20260505035737 | 71 | 340 | 2.6 | 4.3 | 0.00 | 0.00 | 0.00 | 41 | 1005.1 |
| 20260505034148 | 71 | 345 | 2.6 | 6.1 | 0.00 | 0.00 | 0.00 | 46 | 1004.9 |
| 20260505032558 | 69 | 344 | 2.6 | 3.5 | 0.00 | 0.00 | 0.00 | 59 | 1004.6 |
| 20260505031010 | 67 | 344 | 0.9 | 3.5 | 0.00 | 0.00 | 0.00 | 68 | 1004.0 |
| 20260505025420 | 67 | 360 | 0.0 | 0.0 | 0.00 | 0.00 | 0.00 | 68 | 1003.4 |
| 20260505023831 | 67 | 360 | 0.0 | 0.9 | 0.00 | 0.00 | 0.00 | 70 | 1003.1 |
| 20260505022243 | 68 | 209 | 1.7 | 1.7 | 0.00 | 0.00 | 0.00 | 69 | 1003.1 |
| 20260505020654 | 69 | 360 | 0.0 | 0.0 | 0.00 | 0.00 | 0.00 | 67 | 1002.7 |
| 20260505015104 | 71 | 360 | 0.0 | 0.0 | 0.00 | 0.00 | 0.00 | 64 | 1002.5 |
| 20260505013515 | 73 | 360 | 0.0 | 0.0 | 0.00 | 0.00 | 0.00 | 62 | 1002.5 |
| 20260505011926 | 75 | 360 | 0.0 | 0.9 | 0.00 | 0.00 | 0.00 | 55 | 1002.1 |
| 20260505004749 | 77 | 360 | 0.0 | 2.6 | 0.00 | 0.00 | 0.00 | 50 | 1001.8 |
| 20260505003159 | 78 | 360 | 0.0 | 0.9 | 0.00 | 0.00 | 0.00 | 47 | 1001.7 |
| 20260505000022 | 80 | 251 | 2.6 | 3.5 | 0.00 | 0.00 | 0.00 | 43 | 1001.7 |
| 20260504234434 | 80 | 252 | 1.7 | 3.5 | 0.00 | 0.00 | 0.00 | 42 | 1001.8 |
| 20260504232844 | 80 | 219 | 1.7 | 3.5 | 0.00 | 0.00 | 0.00 | 43 | 1001.9 |
| 20260504231255 | 81 | 166 | 5.2 | 5.2 | 0.00 | 0.00 | 0.00 | 42 | 1001.9 |
| 20260504225705 | 81 | 248 | 2.6 | 3.5 | 0.00 | 0.00 | 0.00 | 42 | 1001.9 |
| 20260504224116 | 82 | 186 | 5.2 | 6.1 | 0.00 | 0.00 | 0.00 | 40 | 1001.8 |
| 20260504222528 | 82 | 193 | 0.9 | 1.7 | 0.00 | 0.00 | 0.00 | 40 | 1001.8 |
| 20260504220942 | 83 | 177 | 1.7 | 8.7 | 0.00 | 0.00 | 0.00 | 40 | 1001.8 |
| 20260504215349 | 83 | 279 | 1.7 | 4.3 | 0.00 | 0.00 | 0.00 | 37 | 1001.9 |
| 20260504213802 | 83 | 241 | 1.7 | 2.6 | 0.00 | 0.00 | 0.00 | 37 | 1002.1 |
| 20260504210622 | 83 | 240 | 4.3 | 4.3 | 0.00 | 0.00 | 0.00 | 37 | 1002.3 |
| 20260504205033 | 85 | 192 | 2.6 | 7.8 | 0.00 | 0.00 | 0.00 | 36 | 1002.5 |
| 20260504201857 | 84 | 281 | 2.6 | 2.6 | 0.00 | 0.00 | 0.00 | 38 | 1002.8 |
| 20260504200307 | 84 | 187 | 6.1 | 6.1 | 0.00 | 0.00 | 0.00 | 38 | 1002.9 |
| 20260504194717 | 83 | 230 | 5.2 | 12.2 | 0.00 | 0.00 | 0.00 | 38 | 1003.0 |
| 20260504193128 | 83 | 218 | 7.0 | 7.8 | 0.00 | 0.00 | 0.00 | 37 | 1003.0 |
| 20260504191540 | 82 | 360 | 0.0 | 3.5 | 0.00 | 0.00 | 0.00 | 41 | 1002.8 |
| 20260504185950 | 81 | 274 | 0.9 | 4.3 | 0.00 | 0.00 | 0.00 | 40 | 1003.1 |
| 20260504182817 | 80 | 140 | 4.3 | 5.2 | 0.00 | 0.00 | 0.00 | 44 | 1003.2 |
| 20260504181223 | 80 | 211 | 0.9 | 7.8 | 0.00 | 0.00 | 0.00 | 46 | 1003.1 |
| 20260504175634 | 79 | 241 | 4.3 | 8.7 | 0.00 | 0.00 | 0.00 | 44 | 1003.3 |
| 20260504174046 | 79 | 263 | 3.5 | 6.1 | 0.00 | 0.00 | 0.00 | 44 | 1003.4 |
| 20260504172456 | 78 | 276 | 0.9 | 6.1 | 0.00 | 0.00 | 0.00 | 48 | 1003.6 |
| 20260504110524 | 51 | 360 | 0.0 | 0.0 | 0.00 | 0.00 | 0.00 | 91 | 1004.3 |